Showing default

KANOPUS-V-IK, 42825

Orbit data source: Space-Track

KANOPUS-V-IK, 42825 is a payload satellite owned by VNIIEM (CIS) in SSO that was launched on Fri, 14 Jul 2017 UTC via a SOYUZ-2-1A launch vehicle from the Tyuratam Missile And Space Complex (TTMTR). Payload-class satellites include a variety of spacecraft equipped with specific instruments for various scientific and technological missions. These include communications satellites like Starlink; space stations such as the ISS; scientific satellites like the Hubble; Earth observation satellites from companies like Planet Labs, Umbra, and HawkEye 360; GPS; miniature CubeSats for education and research; and military/defense satellites.

Loading next visibility...
Identifier
42825, 2017-042A
Orbit
SSO
Country
Flag of CISCIS
Related business
Manufacturer
VNIIEM
Mission
Operational Civil Imaging
Bus & Motor
KANOPUS, Unknown motor
Mass
550 kg wet, 550 kg dry
Launch date (UTC)
2017-07-14 (9 years ago)
Launch vehicle
SOYUZ-2-1A
Launch site
Tyuratam Missile And Space Complex (TTMTR)
Object type
Payload
Rocket body
Debris
Shape & HBR
Box + 2 Pan, 3.0 m
Radar Cross Section
1.665 m², Large (>1 m²)

Expand to show TLE details & history
Last TLE update: 9 hours ago

TLE from 9 hours ago
0 KANOPUS-V-IK
1 42825U 17042A   26256.28398502  .00001652  00000-0  74480-4 0  9994
2 42825  97.3474 159.9376 0001853  88.6464 271.4985 15.22410785508778
Epoch: 2026-09-13T06:48Z
TLE epoch observation values (Epoch: 2026-09-13T06:48:56.305Z)
Latitude
-0.00003°
Longitude
65.42215°
Altitude
501.634 km
Speed
7.614 km/s
True Right ascension
10h 39m 45s
True Declination
0° 00' 00"
Sunlit
Object was in daylight at epoch
Visualization orbit readout
Latitude
Unknown
Longitude
Unknown
Altitude
Unknown
Speed
Unknown
Apparent Right ascension
Unknown
Apparent Declination
Unknown
Sunlit
N/A
Visualization observer readout
Local Sidereal Time
07:49:39
Azimuth
Unknown
Elevation
Unknown
Doppler factor
Unknown
Orbital elements
Apogee altitude
496.805 km
Perigee altitude
494.258 km
Semi-major axis
6,873.668 km
Eccentricity
0.00019
Inclination
97.3474°
RAAN
159.9376°
Arg. of periapsis
88.6464°
True anomaly
271.47727°
Mean anomaly
271.4985°
Eccentric anomaly
271.48789°
Mean motion
3.80856 °/min
Orbital period
94.52 mins
BSTAR
0.00007448
Loading maneuver chart data...
Computing Atmospheric mass density...
Loading historical data...
Loading historical data...
Loading historical data...
Loading historical data...
Loading historical data...
Loading historical data...
Loading historical data...

Documentation

Showing up to 5 results
|